"Pseudo-MPEC" for P221A5U

Created 2024 Nov 22 16:31:09 UT using Find_Orb

Click here for an explanation of pseudo-MPECs

 
 Astrometry: 
     P221A5U* C2024 11 02.24730800 55 34.665+24 19 00.35   ~B2H2 22.55wXNEOCPF52
     P221A5U  C2024 11 02.26126900 55 34.577+24 18 55.85   ~B2H2 22.40wXNEOCPF52
     P221A5U  C2024 11 02.28932300 55 34.379+24 18 46.71   ~B2H2 22.17wXNEOCPF52

Station data:
(F52) Pan-STARRS 2, Haleakala  (N20.707382 W156.255910)  US/Hawaii.
   Observers J. Bulger, T. Dukes, T. Lowe, A. Schultz, M. Willman. Measurers
   K. Chambers, S. Chastel, T. de Boer, L. Denneau, J. Fairlamb, H.
   Flewelling, M. Huber, C.-C. Lin, E. Magnier, Y. Ramanjooloo, R. Wainscoat,
   R. Weryk. 1.8-m Ritchey-Chrétien + CCD.

Orbital elements:  P221A5U
   Perihelion 2024 Aug 2.86847 +/- 54.4 TT = 20:50:36 (JD 2460525.36847)
Epoch 2024 Nov  2.0 TT = JDT 2460616.5   Earth MOID: 0.1997   Ju: 0.1332
M  14.03559772 +/- 19               (J2000 ecliptic)             AutoNEOCP
n   0.15401473 +/- 0.208            Peri.  349.13063 +/- 100
a   3.44689353 +/- 3.11             Node   334.10706 +/- 44
e   0.6488850 +/- 0.239             Incl.    8.06751 +/- 3.6
P   6.39944                H 21.21  G  0.15   U 11.7  SR
q 1.21025569 +/- 0.617    Q 5.68353137 +/- 119
From 3 observations 2024 Nov. 2 (60.5 min); mean residual 0".02
Residuals in arcseconds: 
241102 F52  .02-  .00     241102 F52  .03+  .00     241102 F52  .01-  .00     

Ephemerides (geocentric):
Date (UTC) HH   RA             Dec           delta  r     elong  mag " sig PA
---- --------  ------------   ------------  ------ ------ -----  --- --------
2024 11 22 17  01 01 40.126   +22 39 12.84  .91657 1.7899 140.1 23.3  33d  73
2024 11 22 18  01 01 41.619   +22 39 03.77  .91713 1.7902 140.0 23.3  33d  73
2024 11 22 19  01 01 43.114   +22 38 54.71  .91768 1.7905 140.0 23.3  33d  73
2024 11 22 20  01 01 44.612   +22 38 45.67  .91824 1.7908 140.0 23.3  33d  73
2024 11 22 21  01 01 46.112   +22 38 36.64  .91880 1.7912 139.9 23.3  33d  73
2024 11 22 22  01 01 47.615   +22 38 27.63  .91935 1.7915 139.9 23.3  33d  73
2024 11 22 23  01 01 49.121   +22 38 18.63  .91991 1.7918 139.9 23.3  33d  73
2024 11 23 00  01 01 50.629   +22 38 09.65  .92046 1.7921 139.8 23.3  33d  73
2024 11 23 01  01 01 52.140   +22 38 00.68  .92102 1.7925 139.8 23.3  33d  73
2024 11 23 02  01 01 53.654   +22 37 51.73  .92158 1.7928 139.8 23.3  33d  73
2024 11 23 03  01 01 55.170   +22 37 42.80  .92214 1.7931 139.7 23.3  33d  73
2024 11 23 04  01 01 56.689   +22 37 33.88  .92269 1.7934 139.7 23.3  33d  73
2024 11 23 05  01 01 58.211   +22 37 24.97  .92325 1.7938 139.7 23.3  33d  73
2024 11 23 06  01 01 59.735   +22 37 16.08  .92381 1.7941 139.6 23.3  33d  73
2024 11 23 07  01 02 01.262   +22 37 07.21  .92437 1.7944 139.6 23.3  33d  73
2024 11 23 08  01 02 02.791   +22 36 58.35  .92493 1.7947 139.6 23.3  33d  73
2024 11 23 09  01 02 04.324   +22 36 49.51  .92549 1.7951 139.5 23.3  33d  73
2024 11 23 10  01 02 05.858   +22 36 40.68  .92605 1.7954 139.5 23.3  33d  73
2024 11 23 11  01 02 07.396   +22 36 31.87  .92661 1.7957 139.5 23.3  33d  73
2024 11 23 12  01 02 08.936   +22 36 23.07  .92717 1.7960 139.4 23.3  33d  73
2024 11 23 13  01 02 10.479   +22 36 14.29  .92773 1.7964 139.4 23.3  33d  73
2024 11 23 14  01 02 12.024   +22 36 05.52  .92829 1.7967 139.4 23.4  33d  73
2024 11 23 15  01 02 13.572   +22 35 56.77  .92885 1.7970 139.3 23.4  33d  73
2024 11 23 16  01 02 15.122   +22 35 48.04  .92941 1.7973 139.3 23.4  33d  73
2024 11 23 17  01 02 16.676   +22 35 39.32  .92997 1.7977 139.3 23.4  33d  73
2024 11 23 18  01 02 18.231   +22 35 30.61  .93053 1.7980 139.2 23.4  33d  73
2024 11 23 19  01 02 19.790   +22 35 21.92  .93109 1.7983 139.2 23.4  33d  73
2024 11 23 20  01 02 21.351   +22 35 13.25  .93165 1.7986 139.2 23.4  33d  73
2024 11 23 21  01 02 22.914   +22 35 04.59  .93222 1.7989 139.1 23.4  33d  73
2024 11 23 22  01 02 24.481   +22 34 55.95  .93278 1.7993 139.1 23.4  33d  73
2024 11 23 23  01 02 26.050   +22 34 47.32  .93334 1.7996 139.1 23.4  33d  73
2024 11 24 00  01 02 27.621   +22 34 38.71  .93390 1.7999 139.0 23.4  33d  73
2024 11 24 01  01 02 29.195   +22 34 30.11  .93447 1.8002 139.0 23.4  33d  73
2024 11 24 02  01 02 30.772   +22 34 21.53  .93503 1.8006 139.0 23.4  33d  73
2024 11 24 03  01 02 32.351   +22 34 12.97  .93560 1.8009 138.9 23.4  33d  73
2024 11 24 04  01 02 33.933   +22 34 04.42  .93616 1.8012 138.9 23.4  33d  73
2024 11 24 05  01 02 35.517   +22 33 55.89  .93672 1.8015 138.9 23.4  33d  73
2024 11 24 06  01 02 37.104   +22 33 47.37  .93729 1.8019 138.8 23.4  33d  73
2024 11 24 07  01 02 38.694   +22 33 38.87  .93785 1.8022 138.8 23.4  33d  73
2024 11 24 08  01 02 40.286   +22 33 30.38  .93842 1.8025 138.8 23.4  33d  73
2024 11 24 09  01 02 41.881   +22 33 21.91  .93898 1.8028 138.7 23.4  33d  73
2024 11 24 10  01 02 43.478   +22 33 13.45  .93955 1.8032 138.7 23.4  33d  73
2024 11 24 11  01 02 45.078   +22 33 05.01  .94012 1.8035 138.7 23.4  33d  73
2024 11 24 12  01 02 46.681   +22 32 56.59  .94068 1.8038 138.7 23.4  33d  73
2024 11 24 13  01 02 48.286   +22 32 48.18  .94125 1.8041 138.6 23.4  33d  73
2024 11 24 14  01 02 49.894   +22 32 39.79  .94182 1.8045 138.6 23.4  33d  73
2024 11 24 15  01 02 51.504   +22 32 31.41  .94238 1.8048 138.6 23.4  33d  73
2024 11 24 16  01 02 53.117   +22 32 23.05  .94295 1.8051 138.5 23.4  33d  73